Regional Weather Roundup
Issued by NWS Wakefield, VA

Home | Current Version | Previous Version | Text Only | Print | Product List | Glossary On
Versions: 1 2 3 4 5 6 7 8 9 10 11 12 13 14 15 16 17 18 19 20 21 22 23 24 25 26 27 28 29 30 31 32 33 34 35 36 37 38 39 40 41 42 43 44 45 46 47 48 49 50
000
ASUS41 KAKQ 070515
RWRAKQ

REGIONAL WEATHER ROUNDUP
NATIONAL WEATHER SERVICE WAKEFIELD VA
100 AM EDT TUE JUL 07 2015

Note: "fair" indicates few or no clouds below 12,000 feet with no
significant weather and/or obstructions to visibility. * = Denotes
station may not report precipitation (e.g., rain,snow,etc.),
thunder or fog.

VAZ042-051-052>054-056-070600-
NORTHERN VIRGINIA

CITY           SKY/WX    TMP DP  RH WIND       PRES   REMARKS
WASH NATIONAL  PTCLDY    77  71  82 S9        30.03F
DULLES         PTCLDY    72  70  93 S3        30.03S
FORT BELVOIR   CLEAR     73  71  93 S2        30.03F
QUANTICO       NOT AVBL
FREDERICKSBRG* CLEAR     74  74 100 CALM      30.02F
STAFFORD*      CLEAR     71  69  93 CALM      30.07F
WARRENTON      CLEAR     72  72  99 CALM      30.02F
CULPEPER*      CLEAR     69  69  99 CALM      30.03F
MANASSAS*      CLEAR     72  72 100 SE3         N/A
LEESBURG*      PTCLDY    73  73 100 S7        30.03F
WINCHESTER     CLEAR     70  70 100 CALM      30.03F
FRONT ROYAL*   FAIR      70  68  94 CALM      30.03S
LURAY*         FAIR      72  72 100 CALM      30.05S
$$

VAZ048-049-060>072-079>083-070600-
CENTRAL AND SOUTH CENTRAL VIRGINIA

CITY           SKY/WX    TMP DP  RH WIND       PRES   REMARKS
RICHMOND       PTCLDY    75  72  90 CALM      30.04F
CHESTERFIELD*  NOT AVBL
PETERSBURG*    CLEAR     74  74 100 CALM      30.05S
HANOVER        CLEAR     70  69  97 CALM      30.06S FOG
TAPPAHANNOCK*  CLEAR     73  70  90 CALM      30.05S
QUINTON*       NOT AVBL
CHARLOTTSVILLE CLEAR     71  69  93 SW5       30.04F
GORDONSVILLE*  CLOUDY    70  70 100 CALM      30.03F
ORANGE*        MOCLDY    72  70  94 CALM      30.05F FOG
LOUISA*        CLEAR     72  72 100 S3        30.03F
BUMPASS*       FAIR      69  69  99 CALM      30.04S
FARMVILLE*     MOCLDY    71  71 100 SW3       30.05S
CREWE*         FAIR      70  68  95 CALM      30.05F
FORT PICKETT*  FAIR      71  69  95 W5        30.05F
CHASE CITY*    FAIR      73  72  95 CALM      30.07S
CLARKSVILLE*   FAIR      70  68  94 SW5       30.07S
SOUTH HILL*    CLEAR     71  70  98 S3        30.12S
LAWRENCEVILLE* NOT AVBL
EMPORIA*         N/A     73  72  94 SE3       30.07S
$$

VAZ088>098-070600-
SOUTHEAST VIRGINIA

CITY           SKY/WX    TMP DP  RH WIND       PRES   REMARKS
NORFOLK        CLEAR     75  69  81 S6        30.06F
VIRGINIA BEACH PTCLDY    79  73  82 S5        30.06F
NORFOLK NAVAL  PTCLDY    72  70  93 SE3       30.08S
WEST POINT*    CLEAR     76  72  86 SE3       30.06F
SALUDA*        FAIR      74  70  85 S7        30.05F
NEWPORT NEWS   PTCLDY    75  69  81 S3        30.06S
LANGLEY AFB    PTCLDY    74  70  86 S7        30.04S
FORT EUSTIS    CLEAR     77  77 100 S5        30.04S
WILLIAMSBURG*  CLEAR     79  73  83 S5        30.06F
HR EXEC AP*    FAIR      72  66  83 CALM      30.09S
FRANKLIN*      NOT AVBL
WAKEFIELD      CLEAR     75  70  84 S5        30.06S
$$

VAZ020-022-025-037-045-070600-
WEST CENTRAL AND SOUTHWEST VIRGINIA

CITY           SKY/WX    TMP DP  RH WIND       PRES   REMARKS
STAUNTON*      CLEAR     70  68  92 CALM      30.09F
WAYNESBORO*    FAIR      69  67  93 SW3       30.09F
HOT SPRINGS VA CLEAR     64  64 100 W10       30.19S FOG
LYNCHBURG      FOG       65  65 100 S8        30.10S VSB 1
DANVILLE       MOCLDY    71  67  87 S5        30.09S
SOUTH BOSTON*  FAIR      71  67  89 MISG      30.08R
MARTINSVILLE   MOCLDY    68  68 100 CALM      30.14R FOG
ROANOKE        MOCLDY    69  67  93 CALM      30.12F
BLACKSBURG     CLEAR     65  65 100 CALM      30.19R FOG
DUBLIN*        CLEAR     65  65 100 SW5       30.18R FOG
MARION*        FOG       63  61  96 CALM      30.22S VSB<1/4
HILLSVILLE*    CLEAR     63  63  97 SW3       30.19R FOG
RICHLANDS*     FAIR      66  63  89 S5        30.20R
WISE*            N/A     64  64 100 SW3       30.21S FOG
ABINGDON*      CLEAR     66  66 100 CALM      30.18R FOG
$$

MDZ021>025-VAZ099-100-070600-
SOUTHERN MARYLAND AND THE DELMARVA PENINSULA

CITY           SKY/WX    TMP DP  RH WIND       PRES   REMARKS
PATUXENT RIVER CLEAR     74  72  93 S5        30.04S
BAY BRIDGE APT   N/A     77  70  78 S8        30.03F
LEONARDTOWN    CLEAR     72  70  94 CALM      30.06S
DOVER          PTCLDY    75  75 100 S9        30.03F
GEORGETOWN     PTCLDY    75  73  93 S3        30.06F
EASTON         PTCLDY    74  74 100 S5        30.08F
CAMBRIDGE      MOCLDY    75  72  88 W5        30.05S
SALISBURY      PTCLDY    74  74 100 SE5       30.06S
OCEAN CITY     PTCLDY    76  74  93 VRB6      30.07F
WALLOPS ISLAND MOCLDY    78  77  96 S12       30.07S
ACCOMACK*      CLOUDY    77  75  94 S7        30.06F
$$

NCZ012>017-030>032-070600-
NORTH CENTRAL AND EASTERN NORTH CAROLINA

CITY           SKY/WX    TMP DP  RH WIND       PRES   REMARKS
ROANOKE RAPIDS FAIR      73  72  94 S6        30.07F
RALEIGH        MOCLDY    73  67  81 SW6       30.11R
ELIZABETH CITY CLEAR     76  73  91 S8        30.08S
AHOSKIE*       CLEAR     74  71  89 S5        30.07S
EDENTON*       CLEAR     76  72  87 S9        30.08F
CURRITUCK*     CLEAR     77  71  80 CALM      30.08F
KILL DEVIL HLS CLEAR     78  73  83 SW6       30.08F
MANTEO         CLEAR     78  73  85 SW13      30.09F
CAPE HATTERAS  CLEAR     77  76  96 SW10      30.11F
TARBORO*         N/A     77  71  81 S3        30.09S
GOLDSBORO      CLEAR     75  70  85 CALM      30.07F
WASHINGTON     CLEAR     75  73  91 SW5       30.10F
GREENVILLE     CLEAR     77  72  83 SW6       30.11S
NEW BERN       CLEAR     76  74  93 CALM      30.11S
WILMINGTON     CLEAR     77  73  87 SW6       30.10S
$$

VAZ048-070600-
ELSEWHERE

CITY           SKY/WX    TMP DP  RH WIND       PRES   REMARKS
HARRISBURG PA  PTCLDY    73  70  90 S3        30.01S
BALTIMORE      PTCLDY    72  71  97 S3        30.02F
ANNAPOLIS      CLEAR     76  69  79 S7        30.02F
ANDREWS AFB    CLEAR     71  71  99 S6        30.03F
PHILADELPHIA   CLOUDY    77  72  84 SE7       30.05S
HENDERSON NC   MOCLDY    72  65  78 SW5       30.09R
GREENSBORO     MOCLDY    74  68  81 S5        30.10R
ROCKY MOUNT    CLEAR     77  71  82 SW6       30.08F
$$

VAZ100-070600-
MARINE

STATION/POSITION TIME  TEMP    WIND        PRES    WAVE   SWELL
                       AIR SEA DIR/SP/G            HT/PER HT/PER
                 (UTC) (F)     (DEG/KT/KT) (MB)    (FT/S) (FT/S)
BRANDYWINE LGT   0400   74 75  180/ 16/ 17 1018.1F
CAPE MAY NJ      0400   75 80  160/  8/ 11 1018.0F
LEWES DE         0400   77 73  190/  6/ 10 1017.9F
15NM E FENWICK I 0450   76 75              1017.8F   3/ 4
OCEAN-CITY-INLET 0400   76 76  190/  6/  9 1018.3F
WACHAPREAGUE VA  0400   79 82  190/ 12/ 14 1018.0F
GOOSES REEF MD   0500   78 78  200/ 10/ 12 1018.1F
COVE POINT MD    0400   76     220/  9/ 11 1017.9F
SOLOMONS ISLAND  0400      81                N/A
BISHOPS HEAD MD  0400   80     170/ 15/ 18 1017.0F
PINEY POINT MD   0400          200/  5/  6   N/A
CAMBRIDGE MD     0400   75 80  270/  8/ 10 1018.0R
LEWISETTA VA     0400   76 82  210/  6/  8 1017.2R
RAPPAHANNOCK LGT 0400          180/ 17/ 18 1018.3S
STINGRAY PT      0500   79 81  200/ 12/ 14 1017.5F   2/ 3
YORK RVR RNG VA  0400   77     200/ 12/ 13 1017.2F
YORKTOWN VA      0400   76 81  200/  8/ 12 1017.4F
JAMESTOWN VA     0500   76 83  180/  8/ 10   N/A
DOMINION TERM VA 0400   77     190/ 12/ 14 1017.5F
KIPTOPEKE VA     0400      84  200/  8/  9   N/A
CHES BAY BRIDGE  0400   78 76  190/ 11/ 12 1017.8F
CAPE HENRY VA    0400   78     200/  7/  9   N/A
CHESAPEAKE LGHT  0400   78     200/ 16/ 17 1019.0R
WILLOUBY STN VA  0400   77     190/  4/  7 1018.8F
CAPE HENRY BUOY  0428      78                N/A     3/ 4
1ST LANDING BUOY 0500      78              1017.6F   1/ 4
CAPE CHARLES BUO 0426      78                N/A     3/ 5   2/13
OFFSHORE WE BUOY 0411      78                N/A     3/13   2/13
64NM E OF VA BCH 0450   78 78  190/ 14/ 16 1018.5F   3/ 5   2/ 9
DUCK PIER NC     0400   79 72  200/ 12/ 16   N/A
44100 DUCK FRF   0424      78                N/A     3/ 8   2/13
44056 DUCK FRF   0411      75                N/A     3/ 9   2/14
OREGON INLET NC  0400   81 83  210/ 15/ 18 1019.5S
HATTERAS NC      0400   80 81  200/  5/  8 1019.7R
DIAMOND SHLS NC  0450   81 81  200/ 16/ 17 1019.5F   3/ 4   2/10
CAPE LOOKOUT NC  0500   79     210/  7/  9 1019.4F
$$


USA.gov is the U.S. government's official web portal to all federal, state and local government web resources and services.